sat.trackr.live / text

‹ back to catalog

STARLINK-30800

NORAD 58206 · 2023-170A

PAYLOAD ACTIVE UNKNOWN

§ Identity

Operator
Country
US
Launch date
2023-11-03
Launch site
AFETR
Launch vehicle
Mass (kg)
RCS (m²)

Purposes: comms

External: N2YO · Heavens-Above · Gunter

§ Orbital elements

Epoch: 2026-05-24T23:40:12.475200Z

Period
94.27 min
Inclination
43.0060°
Eccentricity
0.0001356
Mean motion
15.27579425 rev/d
Perigee alt
482.1 km
Apogee alt
484.0 km
Semi-major
6,861.2 km
B*
2.7915e-5
RAAN
123.7118°
Arg perigee
259.1453°
Mean anomaly
100.9246°
Rev number
14,196

§ Raw data

STARLINK-308001 58206U 23170A   26144.98625550  .00000506  00000+0  27915-4 0  99992 58206  43.0060 123.7118 0001356 259.1453 100.9246 15.27579425141963

JSON: /api/v1/satellites/58206 · /tle

For live sub-satellite position, see the globe view (requires WebGL).

§ Visibility from observer

Set your observer location to see the next 7 days of passes ≥ 10°. The values pass through the URL so the page stays shareable.

No JS? Fill the form by hand. The geolocation button needs JavaScript.